This is the latest recevied weather packets stored in our database for station/object SR8WXL-13. If no packets are shown the sender has not sent any weather packets the latest 10 day(s).
| Time | Temp. | Humidity | Pressure | Rain* | Wind** | Luminosity | Snow |
|---|---|---|---|---|---|---|---|
| 1787726260 | 13.89° C | 88% | 1033.6 hPa | 0 mm | - | - | - |
| 1787725361 | 13.89° C | 87% | 1033.8 hPa | 0 mm | - | - | - |
| 1787724484 | 13.89° C | 86% | 1033.7 hPa | 0 mm | - | - | - |
| 1787723720 | 13.89° C | 84% | 1033.7 hPa | 0 mm | - | - | - |
| 1787722845 | 13.89° C | 83% | 1033.4 hPa | 0 mm | - | - | - |
| 1787722000 | 13.89° C | 85% | 1033.6 hPa | 0 mm | - | - | - |
| 1787721263 | 12.78° C | 87% | 1033.4 hPa | 0 mm | - | - | - |
| 1787720421 | 12.78° C | 87% | 1033.4 hPa | 0 mm | - | - | - |
| 1787719560 | 12.78° C | 86% | 1033.5 hPa | 0 mm | - | - | - |
| 1787718725 | 12.78° C | 88% | 1033.3 hPa | 0 mm | - | - | - |
| 1787717940 | 12.78° C | 89% | 1033.2 hPa | 0 mm | - | - | - |
| 1787717130 | 12.78° C | 87% | 1033.1 hPa | 0 mm | - | - | - |
| 1787716300 | 12.78° C | 90% | 1033.2 hPa | 0 mm | - | - | - |
| 1787715504 | 12.78° C | 92% | 1033.1 hPa | 0 mm | - | - | - |
| 1787714630 | 12.78° C | 92% | 1033 hPa | 0 mm | - | - | - |
| 1787713810 | 12.78° C | 92% | 1033.1 hPa | 0 mm | - | - | - |
| 1787713043 | 12.78° C | 92% | 1032.9 hPa | 0 mm | - | - | - |
| 1787712219 | 12.78° C | 92% | 1032.9 hPa | 0 mm | - | - | - |
| 1787711502 | 12.78° C | 92% | 1033.2 hPa | 0 mm | - | - | - |
| 1787710668 | 12.78° C | 91% | 1033 hPa | 0 mm | - | - | - |
| 1787709926 | 12.78° C | 91% | 1032.8 hPa | 0 mm | - | - | - |
| 1787709200 | 12.78° C | 92% | 1032.9 hPa | 0 mm | - | - | - |
| 1787708368 | 12.78° C | 91% | 1032.9 hPa | 0 mm | - | - | - |
| 1787707569 | 12.78° C | 91% | 1033 hPa | 0 mm | - | - | - |
| 1787706764 | 12.78° C | 90% | 1033 hPa | 0 mm | - | - | - |
* Rain latest hour (hover to see other rain measurements)
** Current wind speed in m/s (hover to see current wind gust speed)